Date String (YYYY-MM-DD hh:mm:ss) UTC,Instrument flags,Ambient pressure (hPa),Sample flow (lpm),Bypass flow (lpm),Sample temperature (°C),Ambient temperature (°C),ASC tube jacket temperature (°C),LED temperature (°C),Box temperature (°C),Sample RH (%),Span deviation,Mass concentration (μg/m³),Mass concentration (μg/m³),Mass concentration (μg/m³)
DateTimeUTC,F1_M11,P_M11,Q1_M11,Q2_M11,T1_M11,T2_M11,T3_M11,T4_M11,T5_M11,U1_M11,ZSPAN_M11,X0_M11,X2_M11,X1_M11
2022-07-12 13:00:00,,0831.3,5.00,0.00,30.0,28.8,00.0,38.8,31.9,29.4,0000.0,0018.94,0008.38,0007.25
2022-07-12 13:01:00,,0831.3,5.01,0.00,30.0,28.9,00.0,38.8,31.9,29.6,0000.0,0018.82,0008.46,0007.31
2022-07-12 13:02:00,,0831.3,5.00,0.00,30.0,28.9,00.0,38.8,31.9,29.4,0000.0,0018.76,0008.59,0007.39
2022-07-12 13:03:00,,0831.3,5.00,0.00,30.1,29.0,00.0,38.8,31.9,29.2,0000.0,0018.49,0008.62,0007.45
2022-07-12 13:04:00,,0831.4,5.00,0.00,30.1,29.0,00.0,38.8,32.0,29.1,0000.0,0018.95,0008.70,0007.51
2022-07-12 13:05:00,,0831.3,4.99,0.00,30.1,29.0,00.0,38.8,32.0,29.2,0000.0,0018.61,0008.73,0007.58
2022-07-12 13:06:00,,0831.2,4.99,0.00,30.1,29.1,00.0,38.8,32.0,29.2,0000.0,0017.96,0008.78,0007.63
2022-07-12 13:07:00,,0831.2,5.00,0.00,30.1,29.1,00.0,38.9,32.0,28.6,0000.0,0017.06,0008.86,0007.69
2022-07-12 13:08:00,,0831.2,5.01,0.00,30.1,29.1,00.0,38.9,32.0,29.0,0000.0,0017.31,0008.91,0007.73
2022-07-12 13:09:00,,0831.2,5.01,0.00,30.2,29.1,00.0,38.9,32.1,29.0,0000.0,0017.78,0008.95,0007.76
2022-07-12 13:10:00,,0831.2,5.00,0.00,30.2,29.2,00.0,38.9,32.1,29.0,0000.0,0018.04,0009.06,0007.79
2022-07-12 13:11:00,,0831.2,5.00,0.00,30.2,29.2,00.0,38.9,32.1,28.9,0000.0,0018.17,0009.10,0007.79
2022-07-12 13:12:00,,0831.2,5.00,0.00,30.2,29.2,00.0,38.9,32.1,28.8,0000.0,0019.66,0009.05,0007.75
2022-07-12 13:13:00,,0831.2,5.00,0.00,30.2,29.2,00.0,39.0,32.1,28.9,0000.0,0020.87,0009.00,0007.71
2022-07-12 13:14:00,,0831.2,5.00,0.00,30.3,29.2,00.0,39.0,32.2,28.9,0000.0,0021.63,0008.99,0007.70
2022-07-12 13:15:00,,0831.1,5.00,0.00,30.3,29.3,00.0,39.0,32.2,28.8,0000.0,0021.35,0008.97,0007.70
2022-07-12 13:16:00,,0831.2,5.00,0.00,30.3,29.3,00.0,39.0,32.2,29.0,0000.0,0021.59,0009.03,0007.74
2022-07-12 13:17:00,,0831.3,5.00,0.00,30.3,29.3,00.0,39.0,32.2,29.4,0000.0,0021.82,0009.12,0007.81
2022-07-12 13:18:00,,0831.2,5.00,0.00,30.3,29.3,00.0,39.0,32.2,29.5,0000.0,0021.84,0009.22,0007.92
2022-07-12 13:19:00,,0831.2,5.00,0.00,30.3,29.3,00.0,39.0,32.2,29.6,0000.0,0022.63,0009.37,0008.02
2022-07-12 13:20:00,,0831.2,5.01,0.00,30.3,29.0,00.0,39.0,32.2,29.4,0000.0,0022.89,0009.49,0008.12
2022-07-12 13:21:00,,0831.2,5.00,0.00,30.3,28.1,00.0,39.0,32.1,29.3,0000.0,0022.67,0009.59,0008.19
2022-07-12 13:22:00,,0831.2,5.00,0.00,30.2,27.6,00.0,38.9,31.9,29.5,0000.0,0022.48,0009.65,0008.24
2022-07-12 13:23:00,,0831.1,5.01,0.00,30.1,27.5,00.0,38.9,31.8,29.6,0000.0,0021.66,0009.74,0008.32
2022-07-12 13:24:00,,0831.2,5.00,0.00,30.1,27.6,00.0,38.9,31.7,30.2,0000.0,0021.23,0009.79,0008.40
2022-07-12 13:25:00,,0831.1,5.00,0.00,30.0,27.7,00.0,38.9,31.7,30.4,0000.0,0021.05,0009.85,0008.47
2022-07-12 13:26:00,,0831.2,5.00,0.00,30.0,27.9,00.0,38.9,31.7,30.4,0000.0,0020.87,0009.94,0008.53
2022-07-12 13:27:00,,0831.1,5.01,0.00,29.9,28.0,00.0,38.8,31.7,30.2,0000.0,0020.99,0009.97,0008.53
2022-07-12 13:28:00,,0831.1,4.99,0.00,29.9,28.1,00.0,38.8,31.7,30.1,0000.0,0021.27,0009.92,0008.50
2022-07-12 13:29:00,,0831.1,5.00,0.00,29.9,28.2,00.0,38.8,31.7,30.4,0000.0,0020.87,0009.85,0008.44
2022-07-12 13:30:00,,0831.0,5.00,0.00,29.9,28.3,00.0,38.8,31.7,30.0,0000.0,0019.72,0009.75,0008.38
2022-07-12 13:31:00,,0831.0,4.99,0.00,29.9,28.4,00.0,38.8,31.8,30.1,0000.0,0019.15,0009.66,0008.32
2022-07-12 13:32:00,,0831.0,5.02,0.00,29.9,28.5,00.0,38.8,31.7,30.4,-000.6,0019.23,0009.57,0008.30
2022-07-12 13:33:00,,0831.0,4.99,0.00,29.9,28.6,00.0,38.8,31.8,29.9,-001.0,0019.40,0009.49,0008.26
2022-07-12 13:34:00,,0831.0,5.00,0.00,30.0,28.7,00.0,38.8,31.8,30.0,0000.0,0018.52,0009.40,0008.22
2022-07-12 13:35:00,,0831.0,5.00,0.00,30.0,28.7,00.0,38.8,31.8,29.9,0000.0,0017.99,0009.34,0008.15
2022-07-12 13:36:00,,0831.0,5.00,0.00,30.0,28.8,00.0,38.8,31.9,30.1,0000.0,0017.60,0009.27,0008.11
2022-07-12 13:37:00,,0831.0,5.00,0.00,30.0,28.8,00.0,38.8,31.9,30.0,0000.3,0018.98,0009.19,0008.09
2022-07-12 13:38:00,,0831.0,4.99,0.00,30.0,28.9,00.0,38.8,31.9,30.0,0001.1,0018.93,0009.11,0008.05
2022-07-12 13:39:00,,0831.0,5.01,0.00,30.0,28.9,00.0,38.8,31.9,30.2,0001.5,0018.96,0009.08,0008.04
2022-07-12 13:40:00,,0831.0,4.99,0.00,30.0,28.9,00.0,38.8,32.0,29.9,0001.3,0018.21,0009.00,0007.97
2022-07-12 13:41:00,,0831.0,4.99,0.00,30.1,29.0,00.0,38.8,32.0,30.0,0001.7,0018.25,0008.94,0007.92
2022-07-12 13:42:00,,0831.0,5.00,0.00,30.1,29.0,00.0,38.9,32.0,29.9,0001.7,0018.50,0008.88,0007.87
2022-07-12 13:43:00,,0831.0,5.00,0.00,30.1,29.0,00.0,38.9,32.0,29.1,0001.5,0017.94,0008.77,0007.79
2022-07-12 13:44:00,,0831.0,5.02,0.00,30.1,29.1,00.0,38.9,32.0,29.4,0001.2,0017.44,0008.74,0007.74
2022-07-12 13:45:00,,0831.0,5.00,0.00,30.1,29.1,00.0,38.9,32.0,29.8,0001.6,0018.11,0008.70,0007.68
2022-07-12 13:46:00,,0831.0,4.99,0.00,30.2,29.1,00.0,38.9,32.0,29.9,0000.9,0018.90,0008.65,0007.62
2022-07-12 13:47:00,,0831.0,5.00,0.00,30.2,29.1,00.0,38.9,32.1,29.6,0000.1,0019.57,0008.65,0007.58
2022-07-12 13:48:00,,0831.0,5.01,0.00,30.2,29.2,00.0,39.0,32.1,29.9,0000.2,0019.36,0008.58,0007.50
2022-07-12 13:49:00,,0831.0,4.99,0.00,30.2,29.1,00.0,39.0,32.1,29.8,0000.2,0018.35,0008.51,0007.44
2022-07-12 13:50:00,,0831.0,5.00,0.00,30.2,28.4,00.0,38.9,32.0,29.6,0000.7,0017.79,0008.42,0007.38
2022-07-12 13:51:00,,0831.0,4.99,0.00,30.1,27.7,00.0,38.8,31.9,29.9,0000.4,0018.03,0008.44,0007.34
2022-07-12 13:52:00,,0831.0,5.02,0.00,30.1,27.5,00.0,38.8,31.8,29.9,0000.3,0018.29,0008.48,0007.31
2022-07-12 13:53:00,,0831.1,4.99,0.00,30.0,27.6,00.0,38.8,31.7,30.1,0000.6,0017.82,0008.48,0007.31
2022-07-12 13:54:00,,0831.0,4.99,0.00,29.9,27.7,00.0,38.8,31.6,30.4,0001.4,0017.88,0008.50,0007.31
2022-07-12 13:55:00,,0831.0,5.00,0.00,29.9,27.8,00.0,38.8,31.6,30.4,0001.8,0017.57,0008.47,0007.30
2022-07-12 13:56:00,,0831.0,5.01,0.00,29.9,27.9,00.0,38.8,31.7,30.5,0001.6,0017.56,0008.48,0007.31
2022-07-12 13:57:00,,0831.0,5.01,0.00,29.9,28.1,00.0,38.8,31.7,30.5,0001.9,0017.07,0008.46,0007.33
2022-07-12 13:58:00,,0831.1,4.99,0.00,29.9,28.2,00.0,38.7,31.7,30.5,0001.9,0016.11,0008.42,0007.33
2022-07-12 13:59:00,,0831.0,5.01,0.00,29.9,28.3,00.0,38.7,31.7,30.6,0002.0,0015.12,0008.44,0007.34
